51,2013-07-17 20:14:04,1374092044,55.20268,-10.16442,4,2,2013-07-17 20:13:00,1374091980,15.07,2,15.8,0,4095,55.1932,-10.0772,20,40
52,2013-07-17 21:07:42,1374095262,55.18737,-10.10259,3,2,2013-07-17 21:00:00,1374094800,15.06,3,15.8,30,0,55.1988,-10.0688,50,40
53,2013-07-17 22:06:29,1374098789,55.21303,-10.04073,8,4,2013-07-17 22:00:00,1374098400,15.05,3,15.8,103,60,55.1988,-10.0688,50,40
54,2013-07-17 23:06:17,1374102377,55.16348,-10.02979,3,2,2013-07-17 23:00:00,1374102000,15.04,3,15.8,32,120,55.1988,-10.0688,50,40
55,2013-07-18 00:06:12,1374105972,55.16348,-10.02979,2,1,2013-07-18 00:00:00,1374105600,15.02,3,15.8,30,0,55.1972,-10.0222,86,40
56,2013-07-18 01:06:23,1374109583,55.21303,-10.04073,9,1,2013-07-18 01:00:00,1374109200,15.01,4,15.8,30,60,55.1972,-10.0222,86,40
57,2013-07-18 02:06:12,1374113172,55.1686,-9.96798,2,1,2013-07-18 02:00:00,1374112800,15.02,3,15.8,30,120,55.1972,-10.0222,86,40
58,2013-07-18 03:06:59,1374116819,55.19253,-10.04073,2,1,2013-07-18 03:00:00,1374116400,15.03,4,15.8,30,0,55.1892,-10.0096,32,36
59,2013-07-18 04:06:15,1374120375,55.16348,-10.02979,2,4,2013-07-18 04:00:00,1374120000,15.03,3,15.8,59,60,55.1892,-10.0096,32,36
60,2013-07-18 05:06:10,1374123970,55.21816,-9.97886,3,3,2013-07-18 05:00:00,1374123600,15.03,3,15.8,30,120,55.1892,-10.0096,32,36
61,2013-07-18 06:06:11,1374127571,55.21816,-9.97886,2,1,2013-07-18 06:00:00,1374127200,15.04,3,15.8,30,0,55.198,-10.0202,62,40
62,2013-07-18 07:06:10,1374131170,55.21303,-10.04073,2,1,2013-07-18 07:00:00,1374130800,15.06,3,15.8,30,60,55.198,-10.0202,62,40
63,2013-07-18 08:06:12,1374134772,55.16348,-10.02979,6,1,2013-07-18 08:00:00,1374134400,15.08,3,15.8,30,120,55.198,-10.0202,62,40
64,2013-07-18 09:06:13,1374138373,55.19253,-10.04073,3,30,2013-07-18 09:00:00,1374138000,15.12,3,15.8,30,0,55.2108,-10.0164,56,40
65,2013-07-18 10:06:12,1374141972,55.20159,-12.80148,193,2,2013-07-18 10:00:00,1374141600,15.16,3,15.8,30,60,55.2108,-10.0164,56,40
66,2013-07-18 11:06:18,1374145578,55.21816,-9.97886,2,2,2013-07-18 11:00:00,1374145200,15.19,3,15.8,30,120,55.2108,-10.0164,56,40
67,2013-07-18 12:06:22,1374149182,55.24153,-10.75488,100,3,2013-07-18 12:00:00,1374148800,15.23,3,15.8,30,0,55.2194,-9.98259999999999,32,40
68,2013-07-18 13:06:30,1374152790,55.19766,-9.97886,4,2,2013-07-18 13:00:00,1374152400,15.25,2,15.8,30,60,55.2194,-9.98259999999999,32,40
69,2013-07-18 14:06:18,1374156378,55.23173,-10.17551,67,5,2013-07-18 14:00:00,1374156000,15.29,3,15.8,30,120,55.2194,-9.98259999999999,32,40
70,2013-07-18 15:06:15,1374159975,55.21816,-9.97886,2,6,2013-07-18 15:00:00,1374159600,15.38,3,15.8,30,0,55.2148,-9.96420000000001,32,40
71,2013-07-18 16:06:24,1374163584,55.08231,-7.7313,174,3,2013-07-18 16:00:00,1374163200,15.41,3,15.8,30,60,55.2148,-9.96420000000001,32,40
72,2013-07-18 17:07:35,1374167255,55.24723,-9.98976,4,1,2013-07-18 17:00:00,1374166800,15.45,3,15.8,30,120,55.2148,-9.96420000000001,32,40
73,2013-07-18 18:06:12,1374170772,55.0967,-6.47175,229,3,2013-07-18 18:00:00,1374170400,15.45,2,15.8,94,0,55.2178,-9.97979999999998,62,40
74,2013-07-18 19:06:33,1374174393,55.24723,-9.98976,5,3,2013-07-18 19:00:00,1374174000,15.39,2,15.8,30,60,55.2178,-9.97979999999998,62,40
75,2013-07-18 20:06:18,1374177978,55.24723,-9.98976,12,2,2013-07-18 20:00:00,1374177600,15.39,2,15.8,32,120,55.2178,-9.97979999999998,62,40
76,2013-07-18 21:06:38,1374181598,55.24723,-9.98976,3,2,2013-07-18 21:00:00,1374181200,15.4,2,15.8,30,0,55.2282,-9.988,14,36
77,2013-07-18 22:06:30,1374185190,55.21816,-9.97886,7,1,2013-07-18 22:00:00,1374184800,15.4,2,15.8,37,60,55.2282,-9.988,14,36
78,2013-07-18 23:06:17,1374188777,55.25234,-9.92779,2,3,2013-07-18 23:00:00,1374188400,15.41,2,15.8,30,120,55.2282,-9.988,14,36
79,2013-07-19 00:06:13,1374192373,55.21816,-9.97886,4,1,2013-07-19 00:00:00,1374192000,15.35,2,15.8,30,0,55.2438,-9.95659999999998,32,40
80,2013-07-19 01:06:23,1374195983,55.48648,-5.89963,266,1,2013-07-19 01:00:00,1374195600,15.36,2,15.8,30,60,55.2438,-9.95659999999998,32,40
81,2013-07-19 02:06:12,1374199572,55.24723,-9.98976,2,3,2013-07-19 02:00:00,1374199200,15.34,3,15.8,30,120,55.2438,-9.95659999999998,32,40
82,2013-07-19 03:06:11,1374203171,55.22326,-9.91696,10,5,2013-07-19 03:00:00,1374202800,15.32,2,15.8,30,0,55.2444,-9.93299999999999,32,36
83,2013-07-19 04:06:12,1374206772,55.25234,-9.92779,3,5,2013-07-19 04:00:00,1374206400,15.26,3,15.8,30,60,55.2444,-9.93299999999999,32,36
84,2013-07-19 05:06:13,1374210373,55.24723,-9.98976,4,0,2013-07-19 05:00:00,1374210000,15.23,4,15.8,30,120,55.2444,-9.93299999999999,32,36
85,2013-07-19 06:06:13,1374213973,55.22326,-9.91696,3,1,2013-07-19 06:00:00,1374213600,15.23,3,15.8,30,0,55.2434,-9.94280000000001,32,40
86,2013-07-19 07:06:17,1374217577,55.21816,-9.97886,2,1,2013-07-19 07:00:00,1374217200,15.23,3,15.8,30,60,55.2434,-9.94280000000001,32,40
87,2013-07-19 08:09:00,1374221340,55.21816,-9.97886,5,0,2013-07-19 08:00:00,1374220800,15.24,3,15.8,30,120,55.2434,-9.94280000000001,32,40
88,2013-07-19 09:06:11,1374224771,55.25234,-9.92779,2,7,2013-07-19 09:00:00,1374224400,15.26,3,15.8,179,0,55.2502,-9.95839999999998,52,40
89,2013-07-19 10:06:46,1374228406,55.14867,-14.99616,326,1,2013-07-19 10:00:00,1374228000,15.3,3,15.8,30,60,55.2502,-9.95839999999998,52,40
90,2013-07-19 11:07:48,1374232068,55.22326,-9.91696,3,3,2013-07-19 11:00:00,1374231600,15.37,3,15.8,47,120,55.2502,-9.95839999999998,52,40
91,2013-07-19 12:06:21,1374235581,55.41364,-12.80987,196,2,2013-07-19 12:00:00,1374235200,15.43,3,15.8,109,0,55.2626,-9.9444,50,40
92,2013-07-19 13:06:23,1374239183,55.2677,-9.98976,1,2,2013-07-19 13:00:00,1374238800,15.52,3,15.8,30,60,55.2626,-9.9444,50,40
93,2013-07-19 14:06:23,1374242783,55.22832,-9.85504,3,2,2013-07-19 14:00:00,1374242400,15.63,4,15.8,30,120,55.2626,-9.9444,50,40
94,2013-07-19 15:06:13,1374246373,55.25234,-9.92779,2,7,2013-07-19 15:00:00,1374246000,15.66,4,15.8,30,0,55.2616,-9.9316,56,40
95,2013-07-19 16:06:23,1374249983,55.219,-9.21438,78,2,2013-07-19 16:00:00,1374249600,15.65,3,15.8,30,60,55.2616,-9.9316,56,40
96,2013-07-19 17:06:18,1374253578,55.24723,-9.98976,2,2,2013-07-19 17:00:00,1374253200,15.7,3,15.8,30,120,55.2616,-9.9316,56,40
97,2013-07-19 18:06:13,1374257173,55.24224,-8.90396,97,2,2013-07-19 18:00:00,1374256800,15.66,3,15.8,30,0,55.2618,-9.9462,80,40
98,2013-07-19 19:06:16,1374260776,55.29679,-10.00068,3,2,2013-07-19 19:00:00,1374260400,15.65,3,15.8,30,60,55.2618,-9.9462,80,40
99,2013-07-19 20:06:10,1374264370,55.25234,-9.92779,13,2,2013-07-19 20:00:00,1374264000,15.66,4,15.8,30,120,55.2618,-9.9462,80,40
100,2013-07-19 21:06:38,1374267998,55.27281,-9.92779,2,2,2013-07-19 21:00:00,1374267600,15.65,3,15.8,30,0,55.276,-9.95339999999999,64,36
101,2013-07-19 22:07:35,1374271655,55.24723,-9.98976,3,2,2013-07-19 22:00:00,1374271200,15.68,3,15.8,38,60,55.276,-9.95339999999999,64,36
102,2013-07-19 23:08:08,1374275288,55.3019,-9.93865,4,2,2013-07-19 23:00:00,1374274800,15.72,4,15.6,97,120,55.276,-9.95339999999999,64,36
103,2013-07-20 00:06:19,1374278779,55.27281,-9.92779,4,1,2013-07-20 00:00:00,1374278400,15.75,4,15.6,129,0,55.2838,-9.93019999999999,64,40
104,2013-07-20 01:06:18,1374282378,55.4015,-7.60299,166,2,2013-07-20 01:00:00,1374282000,15.77,3,15.6,30,60,55.2838,-9.93019999999999,64,40
105,2013-07-20 02:06:40,1374286000,55.25234,-9.92779,2,1,2013-07-20 02:00:00,1374285600,15.75,3,15.6,30,120,55.2838,-9.93019999999999,64,40
106,2013-07-20 03:06:11,1374289571,55.3019,-9.93865,7,6,2013-07-20 03:00:00,1374289200,15.73,3,15.6,41,0,55.282,-9.90799999999999,18,40
107,2013-07-20 04:06:15,1374293175,55.25741,-9.86581,2,1,2013-07-20 04:00:00,1374292800,15.72,4,15.6,30,60,55.282,-9.90799999999999,18,40
108,2013-07-20 05:06:17,1374296777,55.24723,-9.98976,2,2,2013-07-20 05:00:00,1374296400,15.74,3,15.6,30,120,55.282,-9.90799999999999,18,40
109,2013-07-20 06:06:52,1374300412,55.27281,-9.92779,2,1,2013-07-20 06:00:00,1374300000,15.78,3,15.6,30,0,55.2766,-9.91039999999998,56,40
110,2013-07-20 07:06:43,1374304003,55.22832,-9.85504,12,5,2013-07-20 07:00:00,1374303600,15.8,4,15.6,53,60,55.2766,-9.91039999999998,56,40
111,2013-07-20 08:06:19,1374307579,55.27788,-9.86581,2,0,2013-07-20 08:00:00,1374307200,15.86,3,15.6,48,120,55.2766,-9.91039999999998,56,40
112,2013-07-20 09:06:10,1374311170,55.29679,-10.00068,2,0,2013-07-20 09:00:00,1374310800,15.97,3,15.6,30,0,55.284,-9.93559999999999,62,40
113,2013-07-20 10:06:13,1374314773,55.27281,-9.92779,8,1,2013-07-20 10:00:00,1374314400,16.01,3,15.6,30,60,55.284,-9.93559999999999,62,40
114,2013-07-20 11:06:18,1374318378,55.29679,-10.00068,1,3,2013-07-20 11:00:00,1374318000,16.36,3,15.6,30,120,55.284,-9.93559999999999,62,40
115,2013-07-20 12:06:43,1374322003,55.3019,-9.93865,9,2,2013-07-20 12:00:00,1374321600,16.47,3,15.6,30,0,55.294,-9.91979999999998,32,40
116,2013-07-20 13:07:13,1374325633,55.3019,-9.93865,3,2,2013-07-20 13:00:00,1374325200,16.57,3,15.6,43,60,55.294,-9.91979999999998,32,40
117,2013-07-20 14:06:13,1374329173,55.48877,-14.38925,10,5,2013-07-20 14:00:00,1374328800,16.69,3,15.6,74,120,55.294,-9.91979999999998,32,40
118,2013-07-20 15:06:21,1374332781,55.30698,-9.8766,3,2,2013-07-20 15:00:00,1374332400,16.73,3,15.6,30,0,55.296,-9.89759999999998,32,40
119,2013-07-20 16:06:13,1374336373,55.3764,-11.37182,115,4,2013-07-20 16:00:00,1374336000,16.92,2,15.6,30,60,55.296,-9.89759999999998,32,40
120,2013-07-20 17:06:40,1374340000,55.3019,-9.93865,2,2,2013-07-20 17:00:00,1374339600,17.01,4,15.6,30,120,55.296,-9.89759999999998,32,40
121,2013-07-20 18:06:23,1374343583,55.219,-9.21438,182,3,2013-07-20 18:00:00,1374343200,17.14,3,15.6,40,0,55.2904,-9.9016,50,40
122,2013-07-20 19:06:12,1374347172,55.27788,-9.86581,2,4,2013-07-20 19:00:00,1374346800,17.09,3,15.6,30,60,55.2904,-9.9016,50,40
123,2013-07-20 20:06:13,1374350773,55.24425,-8.45923,113,5,2013-07-20 20:00:00,1374350400,17.07,3,15.6,30,120,55.2904,-9.9016,50,40
124,2013-07-20 21:06:11,1374354371,55.3019,-9.93865,2,2,2013-07-20 21:00:00,1374354000,17.01,3,15.6,30,0,55.3026,-9.93279999999999,32,40
125,2013-07-20 22:06:13,1374357973,55.29021,-8.08558,148,5,2013-07-20 22:00:00,1374357600,16.99,3,15.6,30,60,55.3026,-9.93279999999999,32,40
126,2013-07-20 23:06:16,1374361576,55.27788,-9.86581,2,2,2013-07-20 23:00:00,1374361200,16.98,3,15.6,30,120,55.3026,-9.93279999999999,32,40
127,2013-07-21 00:06:29,1374365189,55.3019,-9.93865,2,1,2013-07-21 00:00:00,1374364800,16.91,2,15.6,30,0,55.3204,-9.9092,32,40
128,2013-07-21 01:06:23,1374368783,55.3616,-9.82528,26,1,2013-07-21 01:00:00,1374368400,16.87,4,15.6,30,60,55.3204,-9.9092,32,40
129,2013-07-21 02:06:18,1374372378,55.31204,-9.81452,2,1,2013-07-21 02:00:00,1374372000,16.72,2,15.6,30,120,55.3204,-9.9092,32,40
130,2013-07-21 03:06:12,1374375972,55.44108,-7.28968,179,3,2013-07-21 03:00:00,1374375600,16.45,3,15.6,30,0,55.3254,-9.86539999999999,62,40
131,2013-07-21 04:06:12,1374379572,55.30698,-9.8766,2,1,2013-07-21 04:00:00,1374379200,16.35,2,15.6,30,60,55.3254,-9.86539999999999,62,40
132,2013-07-21 05:07:10,1374383230,55.33248,-9.81452,4,0,2013-07-21 05:00:00,1374382800,16.27,3,15.6,30,120,55.3254,-9.86539999999999,62,40
133,2013-07-21 06:06:13,1374386773,55.31204,-9.81452,2,1,2013-07-21 06:00:00,1374386400,16.27,3,15.6,69,0,55.3122,-9.8502,62,40
134,2013-07-21 07:06:15,1374390375,55.3019,-9.93865,3,2,2013-07-21 07:00:00,1374390000,16.27,4,15.6,30,60,55.3122,-9.8502,62,40
135,2013-07-21 08:07:11,1374394031,55.27788,-9.86581,2,1,2013-07-21 08:00:00,1374393600,16.25,3,15.6,30,120,55.3122,-9.8502,62,40
136,2013-07-21 09:06:13,1374397573,55.3019,-9.93865,4,9,2013-07-21 09:00:00,1374397200,16.39,3,15.6,70,0,55.3106,-9.89099999999999,34,40
137,2013-07-21 10:06:39,1374401199,55.35654,-9.88742,8,1,2013-07-21 10:00:00,1374400800,16.52,3,15.6,30,60,55.3106,-9.89099999999999,34,40
138,2013-07-21 11:06:44,1374404804,55.30698,-9.8766,2,2,2013-07-21 11:00:00,1374404400,16.7,3,15.6,39,120,55.3106,-9.89099999999999,34,40
139,2013-07-21 12:09:32,1374408572,55.35145,-9.94954,8,2,2013-07-21 12:00:00,1374408000,16.82,3,15.6,44,0,55.331,-9.9144,50,40
140,2013-07-21 13:06:42,1374412002,55.30698,-9.8766,5,2,2013-07-21 13:00:00,1374411600,16.82,3,15.6,211,60,55.331,-9.9144,50,40
141,2013-07-21 14:06:12,1374415572,55.3616,-9.82528,3,3,2013-07-21 14:00:00,1374415200,16.87,3,15.6,44,120,55.331,-9.9144,50,40
142,2013-07-21 15:06:14,1374419174,55.35654,-9.88742,2,5,2013-07-21 15:00:00,1374418800,16.92,3,15.6,30,0,55.3538,-9.87199999999999,56,40
143,2013-07-21 16:07:16,1374422836,55.56115,-14.03624,279,2,2013-07-21 16:00:00,1374422400,16.9,3,15.6,30,60,55.3538,-9.87199999999999,56,40
144,2013-07-21 17:08:28,1374426508,55.35654,-9.88742,3,2,2013-07-21 17:00:00,1374426000,16.88,4,15.6,75,120,55.3538,-9.87199999999999,56,40
145,2013-07-21 18:06:11,1374429971,55.38052,-10.66619,87,2,2013-07-21 18:00:00,1374429600,16.72,4,15.6,147,0,55.3462,-9.83359999999999,32,40
146,2013-07-21 19:07:33,1374433653,55.3616,-9.82528,3,2,2013-07-21 19:00:00,1374433200,16.8,4,15.6,30,60,55.3462,-9.83359999999999,32,40
147,2013-07-21 20:06:18,1374437178,55.39544,-10.72821,105,2,2013-07-21 20:00:00,1374436800,16.86,4,15.6,93,120,55.3462,-9.83359999999999,32,40
148,2013-07-21 21:06:22,1374440782,55.35654,-9.88742,4,4,2013-07-21 21:00:00,1374440400,16.84,3,15.6,30,0,55.3366,-9.8682,62,40
149,2013-07-21 22:06:11,1374444371,55.32235,-9.93865,14,5,2013-07-21 22:00:00,1374444000,16.86,3,15.6,30,60,55.3366,-9.8682,62,40
150,2013-07-21 23:06:14,1374447974,55.35654,-9.88742,3,4,2013-07-21 23:00:00,1374447600,16.78,3,15.6,30,120,55.3366,-9.8682,62,40
151,2013-07-22 00:06:13,1374451573,55.35654,-9.88742,2,4,2013-07-22 00:00:00,1374451200,16.79,4,15.6,30,0,55.363,-9.905,56,36
152,2013-07-22 01:06:14,1374455174,55.36508,-10.14685,67,2,2013-07-22 01:00:00,1374454800,16.7,2,15.6,30,60,55.363,-9.905,56,36
153,2013-07-22 02:07:34,1374458854,55.35654,-9.88742,3,1,2013-07-22 02:00:00,1374458400,16.62,3,15.6,30,120,55.363,-9.905,56,36
154,2013-07-22 03:06:15,1374462375,55.42034,-8.94307,122,4,2013-07-22 03:00:00,1374462000,16.63,3,15.6,94,0,55.3886,-9.86519999999999,32,40
155,2013-07-22 04:06:19,1374465979,55.41114,-9.83605,3,1,2013-07-22 04:00:00,1374465600,16.59,3,15.6,30,60,55.3886,-9.86519999999999,32,40
156,2013-07-22 05:06:13,1374469573,55.40607,-9.89826,7,5,2013-07-22 05:00:00,1374469200,16.51,4,15.6,30,120,55.3886,-9.86519999999999,32,40
157,2013-07-22 06:06:35,1374473195,55.36663,-9.76311,2,2,2013-07-22 06:00:00,1374472800,16.52,3,15.6,30,0,55.38,-9.81739999999999,62,40
158,2013-07-22 07:06:19,1374476779,55.3616,-9.82528,5,1,2013-07-22 07:00:00,1374476400,16.52,3,15.6,34,60,55.38,-9.81739999999999,62,40
159,2013-07-22 08:06:47,1374480407,55.32743,-9.8766,10,2,2013-07-22 08:00:00,1374480000,16.55,3,15.6,30,120,55.38,-9.81739999999999,62,40
160,2013-07-22 09:07:48,1374484068,55.3375,-9.75242,14,0,2013-07-22 09:00:00,1374483600,16.58,3,15.6,49,0,55.3644,-9.82659999999998,66,40
161,2013-07-22 10:06:19,1374487579,55.3616,-9.82528,1,0,2013-07-22 10:00:00,1374487200,16.8,4,15.6,106,60,55.3644,-9.82659999999998,66,40
162,2013-07-22 11:09:35,1374491375,55.3616,-9.82528,2,3,2013-07-22 11:00:00,1374490800,16.88,3,15.6,30,120,55.3644,-9.82659999999998,66,40
163,2013-07-22 12:06:14,1374494774,55.35654,-9.88742,2,4,2013-07-22 12:00:00,1374494400,16.99,3,15.6,214,0,55.3688,-9.87779999999998,32,40
164,2013-07-22 13:06:21,1374498381,55.38057,-9.96044,1,1,2013-07-22 13:00:00,1374498000,17.01,3,15.6,30,60,55.3688,-9.87779999999998,32,40
165,2013-07-22 14:10:19,1374502219,55.3616,-9.82528,2,3,2013-07-22 14:00:00,1374501600,17.03,4,15.6,30,120,55.3688,-9.87779999999998,32,40
166,2013-07-22 15:08:52,1374505732,55.40607,-9.89826,2,3,2013-07-22 15:00:00,1374505200,17.13,3,15.6,255,0,55.3972,-9.87299999999999,52,40
167,2013-07-22 16:06:15,1374509175,55.38704,-9.76311,4,3,2013-07-22 16:00:00,1374508800,17.17,3,15.6,173,60,55.3972,-9.87299999999999,52,40
168,2013-07-22 17:06:23,1374512783,55.41114,-9.83605,2,5,2013-07-22 17:00:00,1374512400,17.13,3,15.6,30,120,55.3972,-9.87299999999999,52,40
169,2013-07-22 18:06:39,1374516399,55.56362,-13.11344,220,2,2013-07-22 18:00:00,1374516000,17.1,3,15.6,30,0,55.4066,-9.8116,112,40
170,2013-07-22 19:06:12,1374519972,55.41114,-9.83605,3,2,2013-07-22 19:00:00,1374519600,16.91,3,15.6,39,60,55.4066,-9.8116,112,40
171,2013-07-22 20:06:35,1374523595,55.42257,-10.41786,150,4,2013-07-22 20:00:00,1374523200,16.65,3,15.6,30,120,55.4066,-9.8116,112,40
172,2013-07-22 21:06:40,1374527200,55.41618,-9.77382,2,2,2013-07-22 21:00:00,1374526800,16.61,3,15.6,38,0,55.3994,-9.8066,36,36
173,2013-07-22 22:06:58,1374530818,55.3616,-9.82528,5,6,2013-07-22 22:00:00,1374530400,16.87,3,15.6,40,60,55.3994,-9.8066,36,36
174,2013-07-22 23:09:02,1374534542,55.41618,-9.77382,3,2,2013-07-22 23:00:00,1374534000,17.02,4,15.6,63,120,55.3994,-9.8066,36,36
175,2013-07-23 00:06:30,1374537990,55.3616,-9.82528,3,2,2013-07-23 00:00:00,1374537600,16.99,4,15.6,182,0,55.4002,-9.8426,32,40
176,2013-07-23 01:06:14,1374541574,55.31439,-11.80428,144,1,2013-07-23 01:00:00,1374541200,16.88,4,15.6,31,60,55.4002,-9.8426,32,40
177,2013-07-23 02:06:10,1374545170,55.35654,-9.88742,3,1,2013-07-23 02:00:00,1374544800,16.68,3,15.6,30,120,55.4002,-9.8426,32,40
178,2013-07-23 03:07:13,1374548833,55.47909,-8.82792,128,2,2013-07-23 03:00:00,1374548400,16.63,3,15.6,30,0,55.4216,-9.8432,32,40
179,2013-07-23 04:06:49,1374552409,55.41618,-9.77382,2,1,2013-07-23 04:00:00,1374552000,16.67,3,15.6,74,60,55.4216,-9.8432,32,40
180,2013-07-23 05:06:16,1374555976,55.49258,-8.6403,99,1,2013-07-23 05:00:00,1374555600,16.64,3,15.6,49,120,55.4216,-9.8432,32,40
181,2013-07-23 06:06:11,1374559571,55.41114,-9.83605,2,7,2013-07-23 06:00:00,1374559200,16.64,2,15.6,30,0,55.4308,-9.8064,34,40
182,2013-07-23 07:06:35,1374563195,55.53871,-7.81652,161,2,2013-07-23 07:00:00,1374562800,16.63,2,15.6,30,60,55.4308,-9.8064,34,40
183,2013-07-23 08:06:17,1374566777,55.42118,-9.71157,1,2,2013-07-23 08:00:00,1374566400,16.65,3,15.6,36,120,55.4308,-9.8064,34,40
184,2013-07-23 09:06:15,1374570375,55.68038,-5.60927,275,12,2013-07-23 09:00:00,1374570000,16.69,2,15.6,30,0,55.4274,-9.7962,32,40
185,2013-07-23 10:06:16,1374573976,55.41618,-9.77382,5,0,2013-07-23 10:00:00,1374573600,16.65,2,15.6,30,60,55.4274,-9.7962,32,40
186,2013-07-23 11:06:17,1374577577,55.41114,-9.83605,2,13,2013-07-23 11:00:00,1374577200,16.68,3,15.6,30,120,55.4274,-9.7962,32,40
187,2013-07-23 12:06:11,1374581171,55.41114,-9.83605,2,3,2013-07-23 12:00:00,1374580800,16.79,3,15.6,30,0,55.416,-9.8228,32,40
188,2013-07-23 13:06:27,1374584787,55.44029,-9.84685,7,3,2013-07-23 13:00:00,1374584400,16.97,3,15.6,30,60,55.416,-9.8228,32,40
189,2013-07-23 14:06:11,1374588371,55.41114,-9.83605,3,3,2013-07-23 14:00:00,1374588000,16.97,2,15.6,30,120,55.416,-9.8228,32,40
190,2013-07-23 15:06:14,1374591974,55.40607,-9.89826,3,8,2013-07-23 15:00:00,1374591600,16.87,3,15.6,30,0,55.4256,-9.84619999999998,32,40
191,2013-07-23 16:06:11,1374595571,55.44534,-9.78456,4,4,2013-07-23 16:00:00,1374595200,16.83,2,15.6,30,60,55.4256,-9.84619999999998,32,40
192,2013-07-23 17:06:16,1374599176,55.46067,-9.84685,2,7,2013-07-23 17:00:00,1374598800,16.99,2,15.6,30,120,55.4256,-9.84619999999998,32,40
193,2013-07-23 18:06:13,1374602773,55.65701,-13.28057,236,5,2013-07-23 18:00:00,1374602400,16.95,3,15.6,30,0,55.446,-9.8152,32,44
194,2013-07-23 19:06:13,1374606373,55.44534,-9.78456,2,2,2013-07-23 19:00:00,1374606000,16.85,2,15.6,30,60,55.446,-9.8152,32,44
195,2013-07-23 20:06:13,1374609973,55.5875,-12.60453,191,9,2013-07-23 20:00:00,1374609600,16.73,2,15.6,30,120,55.446,-9.8152,32,44
196,2013-07-23 21:06:13,1374613573,55.44029,-9.84685,1,7,2013-07-23 21:00:00,1374613200,16.73,3,15.6,30,0,55.45,-9.78719999999998,32,40
197,2013-07-23 22:06:13,1374617173,55.56152,-12.26747,179,7,2013-07-23 22:00:00,1374616800,16.55,3,15.6,30,60,55.45,-9.78719999999998,32,40
198,2013-07-23 23:06:24,1374620784,55.41618,-9.77382,2,2,2013-07-23 23:00:00,1374620400,16.49,3,15.6,30,120,55.45,-9.78719999999998,32,40
199,2013-07-24 00:06:24,1374624384,55.41114,-9.83605,2,2,2013-07-24 00:00:00,1374624000,16.46,4,15.6,30,0,55.4364,-9.80439999999999,92,36
200,2013-07-24 01:06:14,1374627974,55.41114,-9.83605,3,5,2013-07-24 01:00:00,1374627600,16.45,4,15.6,30,60,55.4364,-9.80439999999999,92,36
201,2013-07-24 02:06:18,1374631578,55.41618,-9.77382,2,2,2013-07-24 02:00:00,1374631200,16.28,3,15.6,30,120,55.4364,-9.80439999999999,92,36
202,2013-07-24 03:06:11,1374635171,55.36467,-11.49552,124,4,2013-07-24 03:00:00,1374634800,16.28,3,15.6,30,0,55.4398,-9.83019999999999,32,40
203,2013-07-24 04:06:13,1374638773,55.44029,-9.84685,2,3,2013-07-24 04:00:00,1374638400,16.32,3,15.6,30,60,55.4398,-9.83019999999999,32,40
204,2013-07-24 05:08:36,1374642516,55.38179,-10.98805,98,1,2013-07-24 05:00:00,1374642000,16.44,4,15.6,30,120,55.4398,-9.83019999999999,32,40
205,2013-07-24 06:06:13,1374645973,55.46571,-9.78456,2,3,2013-07-24 06:00:00,1374645600,16.45,3,15.6,155,0,55.466,-9.80859999999998,50,40
206,2013-07-24 07:06:30,1374649590,55.56408,-8.33636,120,2,2013-07-24 07:00:00,1374649200,16.43,4,15.6,30,60,55.466,-9.80859999999998,50,40
207,2013-07-24 08:06:51,1374653211,55.49488,-9.79531,4,1,2013-07-24 08:00:00,1374652800,16.34,4,15.6,30,120,55.466,-9.80859999999998,50,40
208,2013-07-24 09:06:15,1374656775,55.44029,-9.84685,12,1,2013-07-24 09:00:00,1374656400,16.24,3,15.6,51,0,55.4696,-9.77279999999999,64,40
209,2013-07-24 10:07:07,1374660427,55.49991,-9.73293,7,1,2013-07-24 10:00:00,1374660000,16.19,4,15.6,30,60,55.4696,-9.77279999999999,64,40
210,2013-07-24 11:06:49,1374664009,55.47073,-9.72224,3,2,2013-07-24 11:00:00,1374663600,16.22,3,15.6,71,120,55.4696,-9.77279999999999,64,40
211,2013-07-24 12:06:30,1374667590,55.46067,-9.84685,3,2,2013-07-24 12:00:00,1374667200,16.23,4,15.6,48,0,55.4478,-9.78399999999999,62,40
212,2013-07-24 13:06:29,1374671189,55.41618,-9.77382,7,2,2013-07-24 13:00:00,1374670800,16.23,4,15.6,31,60,55.4478,-9.78399999999999,62,40
213,2013-07-24 14:06:13,1374674773,55.44534,-9.78456,2,3,2013-07-24 14:00:00,1374674400,16.32,4,15.6,30,120,55.4478,-9.78399999999999,62,40
214,2013-07-24 15:06:14,1374678374,55.46067,-9.84685,2,7,2013-07-24 15:00:00,1374678000,16.37,3,15.6,30,0,55.4458,-9.816,56,40
214,2013-07-24 15:07:21,1374678441,55.43522,-9.90912,2,3,2013-07-24 15:00:00,1374678000,16.37,3,15.6,30,0,55.4458,-9.816,56,40
215,2013-07-24 16:10:42,1374682242,55.44534,-9.78456,2,3,2013-07-24 16:00:00,1374681600,16.39,4,15.6,80,60,55.4458,-9.816,56,40
216,2013-07-24 17:06:24,1374685584,55.49991,-9.73293,12,6,2013-07-24 17:00:00,1374685200,16.46,5,15.6,255,120,55.4458,-9.816,56,40
217,2013-07-24 18:06:11,1374689171,55.79939,-14.85735,328,4,2013-07-24 18:00:00,1374688800,16.43,3,15.6,30,0,55.4688,-9.8004,32,40
218,2013-07-24 19:06:12,1374692772,55.46067,-9.84685,2,6,2013-07-24 19:00:00,1374692400,16.39,3,15.6,30,60,55.4688,-9.8004,32,40
219,2013-07-24 20:06:16,1374696376,55.49991,-9.73293,9,3,2013-07-24 20:00:00,1374696000,16.36,4,15.6,30,120,55.4688,-9.8004,32,40
220,2013-07-24 21:06:45,1374700005,55.49488,-9.79531,3,3,2013-07-24 21:00:00,1374699600,16.32,3,15.6,30,0,55.4718,-9.75039999999998,60,40
221,2013-07-24 22:06:13,1374703573,55.44534,-9.78456,2,4,2013-07-24 22:00:00,1374703200,16.28,4,15.6,45,60,55.4718,-9.75039999999998,60,40
222,2013-07-24 23:07:08,1374707228,55.47073,-9.72224,2,2,2013-07-24 23:00:00,1374706800,16.27,3,15.6,30,120,55.4718,-9.75039999999998,60,40
223,2013-07-25 00:08:13,1374710893,55.41618,-9.77382,5,1,2013-07-25 00:00:00,1374710400,16.29,3,15.6,67,0,55.4498,-9.7474,92,36
224,2013-07-25 01:06:15,1374714375,55.37023,-14.35787,301,1,2013-07-25 01:00:00,1374714000,16.29,4,15.6,132,60,55.4498,-9.7474,92,36
225,2013-07-25 02:06:12,1374717972,55.44534,-9.78456,2,5,2013-07-25 02:00:00,1374717600,16.21,4,15.6,30,120,55.4498,-9.7474,92,36
226,2013-07-25 03:06:14,1374721574,55.27526,-13.15038,227,2,2013-07-25 03:00:00,1374721200,16.18,3,15.6,30,0,55.4444,-9.7672,10,40
227,2013-07-25 04:06:20,1374725180,55.47073,-9.72224,3,1,2013-07-25 04:00:00,1374724800,16.26,3,15.6,30,60,55.4444,-9.7672,10,40